TimeAKDT,TemperatureF,Dew PointF,Humidity,Sea Level PressureIn,VisibilityMPH,Wind Direction,Wind SpeedMPH,Gust SpeedMPH,PrecipitationIn,Events,Conditions,WindDirDegrees,DateUTC
12:53 AM,26.1,21.9,84,30.40,10.0,Calm,Calm,-,N/A,,Clear,0,2013-04-21 08:53:00
1:53 AM,23.0,19.9,88,30.40,10.0,Calm,Calm,-,N/A,,Clear,0,2013-04-21 09:53:00
2:53 AM,21.9,19.0,89,30.39,10.0,NE,3.5,-,N/A,,Clear,50,2013-04-21 10:53:00
3:53 AM,21.9,18.0,85,30.38,10.0,North,4.6,-,N/A,,Clear,10,2013-04-21 11:53:00
4:53 AM,19.9,16.0,85,30.38,10.0,NNE,5.8,-,N/A,,Clear,20,2013-04-21 12:53:00
5:53 AM,21.9,17.1,82,30.37,10.0,NNE,5.8,-,N/A,,Clear,20,2013-04-21 13:53:00
6:53 AM,21.9,19.9,92,30.37,10.0,NNE,6.9,-,N/A,,Clear,30,2013-04-21 14:53:00
7:53 AM,26.1,23.0,88,30.36,10.0,NNE,8.1,-,N/A,,Clear,30,2013-04-21 15:53:00
8:53 AM,30.0,25.0,82,30.36,10.0,NNE,9.2,-,N/A,,Clear,30,2013-04-21 16:53:00
9:53 AM,34.0,25.0,70,30.36,10.0,NNE,13.8,-,N/A,,Clear,20,2013-04-21 17:53:00
10:53 AM,34.0,25.0,70,30.36,10.0,North,16.1,-,N/A,,Overcast,10,2013-04-21 18:53:00
11:53 AM,34.0,24.1,67,30.36,10.0,North,15.0,-,N/A,,Overcast,10,2013-04-21 19:53:00
12:53 PM,34.0,25.0,70,30.36,10.0,North,9.2,-,N/A,,Overcast,10,2013-04-21 20:53:00
1:53 PM,35.1,26.1,70,30.36,10.0,North,6.9,-,N/A,,Overcast,360,2013-04-21 21:53:00
2:53 PM,36.0,27.0,70,30.36,9.0,NNE,8.1,-,N/A,,Overcast,20,2013-04-21 22:53:00
3:53 PM,36.0,28.9,76,30.36,9.0,East,11.5,-,0.00,,Overcast,80,2013-04-21 23:53:00
4:53 PM,35.1,32.0,89,30.35,10.0,NNE,10.4,-,0.00,,Overcast,30,2013-04-22 00:53:00
5:00 PM,35.6,32.0,87,30.34,10.0,NNE,10.4,-,N/A,,Overcast,30,2013-04-22 01:00:00
5:53 PM,35.1,32.0,89,30.35,10.0,NNE,12.7,-,N/A,,Overcast,30,2013-04-22 01:53:00
6:04 PM,35.6,32.0,87,30.34,10.0,NE,13.8,-,N/A,,Overcast,40,2013-04-22 02:04:00
6:12 PM,33.8,32.0,93,30.34,7.0,NE,17.3,-,0.00,Rain,Light Rain,40,2013-04-22 02:12:00
6:21 PM,33.8,33.8,100,30.34,7.0,NE,13.8,-,0.00,Rain,Light Rain,40,2013-04-22 02:21:00
6:31 PM,33.8,32.0,93,30.34,5.0,NE,16.1,20.7,0.00,Snow,Light Snow,40,2013-04-22 02:31:00
6:53 PM,33.1,32.0,96,30.35,5.0,NE,17.3,-,0.01,,Overcast,40,2013-04-22 02:53:00
7:13 PM,33.8,32.0,93,30.34,3.0,NNE,13.8,-,0.00,Snow,Light Snow,30,2013-04-22 03:13:00
7:53 PM,33.1,32.0,96,30.35,4.0,NNE,10.4,-,0.00,Snow,Light Snow,20,2013-04-22 03:53:00
8:24 PM,33.8,30.2,87,30.35,7.0,NNE,12.7,-,0.00,Snow,Light Snow,20,2013-04-22 04:24:00
8:53 PM,33.1,30.9,92,30.36,10.0,North,12.7,-,0.00,,Overcast,10,2013-04-22 04:53:00
9:53 PM,33.1,30.9,92,30.38,10.0,North,9.2,-,N/A,,Overcast,10,2013-04-22 05:53:00
10:53 PM,32.0,30.0,92,30.39,10.0,North,5.8,-,N/A,,Overcast,350,2013-04-22 06:53:00
11:53 PM,33.1,28.9,85,30.39,10.0,North,4.6,-,N/A,,Overcast,360,2013-04-22 07:53:00